GW0996 Weather Reports


time (UTC)temp
C
wind
direction
speed
KPH
gust
KPH
rain 1hr
cm
rain 24hr
cm
rain mn
cm
humidity
%
barometer
mb
20260507201059 13 339 0.0 0.0 0.00 0.00 0.00 77 1012.4
20260507200557 13 339 0.0 3.2 0.00 0.00 0.00 75 1012.3
20260507200056 13 332 0.0 3.2 0.00 0.00 0.00 75 1012.6
20260507195558 13 342 0.0 1.6 0.00 0.00 0.00 76 1012.9
20260507195054 13 339 0.0 1.6 0.00 0.00 0.00 77 1012.5
20260507194554 13 334 0.0 1.6 0.00 0.00 0.00 77 1012.5
20260507194056 13 347 0.0 1.6 0.00 0.00 0.00 77 1012.5
20260507193555 13 54 0.0 1.6 0.00 0.00 0.00 76 1012.5
20260507193055 13 32 0.0 0.0 0.00 0.00 0.00 77 1012.6
20260507192543 14 38 0.0 1.6 0.00 0.00 0.00 76 1012.4
20260507192044 14 37 0.0 0.0 0.00 0.00 0.00 76 1012.6
20260507190542 15 314 0.0 3.2 0.00 0.00 0.00 75 1012.6
20260507190046 15 339 1.6 3.2 0.00 0.00 0.00 75 1012.3
20260507185544 15 347 0.0 3.2 0.00 0.00 0.00 74 1012.3
20260507185045 15 356 0.0 1.6 0.00 0.00 0.00 74 1012.2
20260507184546 16 324 0.0 1.6 0.00 0.00 0.00 72 1012.2
20260507184045 16 330 0.0 1.6 0.00 0.00 0.00 70 1012.2
20260507183045 17 320 0.0 3.2 0.00 0.00 0.00 67 1011.9
20260507182543 17 307 0.0 3.2 0.00 0.00 0.00 64 1012.1
20260507182043 18 313 0.0 4.8 0.00 0.00 0.00 63 1011.9
20260507181547 18 315 3.2 4.8 0.00 0.00 0.00 59 1012.0
20260507181044 18 314 0.0 3.2 0.00 0.00 0.00 60 1011.8
20260507180046 18 314 1.6 4.8 0.00 0.00 0.00 57 1011.9
20260507175543 19 314 1.6 4.8 0.00 0.00 0.00 59 1011.7
20260507175043 19 314 1.6 4.8 0.00 0.00 0.00 59 1011.6
20260507174545 19 316 1.6 4.8 0.00 0.00 0.00 58 1011.6
20260507174043 19 312 1.6 3.2 0.00 0.00 0.00 57 1011.5
20260507173543 20 312 1.6 3.2 0.00 0.00 0.00 57 1011.4
20260507173044 20 311 0.0 3.2 0.00 0.00 0.00 54 1011.4
20260507172543 20 311 0.0 3.2 0.00 0.00 0.00 52 1011.2
20260507171545 20 311 1.6 4.8 0.00 0.00 0.00 52 1011.3
20260507171043 20 311 1.6 4.8 0.00 0.00 0.00 52 1011.2
20260507170546 20 310 1.6 4.8 0.00 0.00 0.00 51 1011.3
20260507170045 20 311 0.0 3.2 0.00 0.00 0.00 52 1011.1
20260507165542 20 311 1.6 3.2 0.00 0.00 0.00 49 1011.4
20260507165043 20 311 3.2 9.7 0.00 0.00 0.00 48 1011.4
20260507164545 20 315 1.6 9.7 0.00 0.00 0.00 48 1011.3
20260507164044 21 295 1.6 4.8 0.00 0.00 0.00 48 1011.5
20260507163045 20 307 0.0 3.2 0.00 0.00 0.00 51 1011.4
20260507162544 20 313 0.0 4.8 0.00 0.00 0.00 49 1011.4
20260507162043 20 313 1.6 4.8 0.00 0.00 0.00 52 1011.3
20260507161548 20 316 1.6 3.2 0.00 0.00 0.00 52 1011.5
20260507160534 20 316 0.0 3.2 0.00 0.00 0.00 51 1011.5
20260507155532 20 317 0.0 0.0 0.00 0.00 0.00 51 1011.5
20260507155034 21 317 0.0 3.2 0.00 0.00 0.00 49 1011.5
20260507154540 21 317 0.0 3.2 0.00 0.00 0.00 51 1011.2
20260507154032 21 320 0.0 11.3 0.00 0.00 0.00 47 1011.5
20260507153521 21 317 0.0 11.3 0.00 0.00 0.00 46 1011.5
20260507152524 21 335 0.0 3.2 0.00 0.00 0.00 43 1011.6
20260507152007 21 332 0.0 0.0 0.00 0.00 0.00 46 1011.7
20260507151511 21 332 0.0 3.2 0.00 0.00 0.00 43 1011.5
20260507151008 21 331 0.0 3.2 0.00 0.00 0.00 47 1011.5
20260507150509 21 49 1.6 11.3 0.00 0.00 0.00 46 1011.5
20260507150011 21 325 3.2 11.3 0.00 0.00 0.00 45 1011.5
20260507145508 21 323 4.8 11.3 0.00 0.00 0.00 48 1011.6
20260507145009 21 307 4.8 11.3 0.00 0.00 0.00 46 1011.7
20260507144510 21 326 3.2 9.7 0.00 0.00 0.00 47 1011.8
20260507144010 21 323 4.8 11.3 0.00 0.00 0.00 46 1011.7
20260507143509 22 314 8.0 11.3 0.00 0.00 0.00 44 1011.8
20260507143011 21 348 1.6 4.8 0.00 0.00 0.00 50 1011.9
20260507142008 21 6 0.0 6.4 0.00 0.00 0.00 46 1012.1
20260507141501 21 316 3.2 6.4 0.00 0.00 0.00 46 1012.0
20260507141001 22 304 0.0 4.8 0.00 0.00 0.00 47 1012.0
20260507140459 22 333 0.0 1.6 0.00 0.00 0.00 45 1012.0
20260507140000 22 328 0.0 1.6 0.00 0.00 0.00 46 1012.1
20260507135500 22 327 0.0 1.6 0.00 0.00 0.00 44 1012.1
20260507135000 22 327 0.0 1.6 0.00 0.00 0.00 44 1012.4
20260507134459 22 330 0.0 1.6 0.00 0.00 0.00 43 1012.2
20260507134000 22 320 1.6 3.2 0.00 0.00 0.00 45 1012.2
20260507133001 22 322 0.0 9.7 0.00 0.00 0.00 47 1012.3
20260507132501 22 320 1.6 9.7 0.00 0.00 0.00 46 1012.5
20260507132003 21 308 0.0 6.4 0.00 0.00 0.00 48 1012.5
20260507131501 21 315 1.6 9.7 0.00 0.00 0.00 45 1012.4
20260507131001 21 330 3.2 9.7 0.00 0.00 0.00 44 1012.4
20260507130501 22 326 1.6 9.7 0.00 0.00 0.00 47 1012.6
20260507125452 21 354 3.2 11.3 0.00 0.00 0.00 45 1012.6
20260507124949 22 315 8.0 11.3 0.00 0.00 0.00 42 1012.6
20260507124449 22 109 0.0 3.2 0.00 0.00 0.00 45 1012.6
20260507123948 21 290 0.0 3.2 0.00 0.00 0.00 44 1012.5
20260507123449 21 319 0.0 6.4 0.00 0.00 0.00 45 1012.6
20260507122950 21 319 0.0 6.4 0.00 0.00 0.00 49 1012.6
20260507122451 22 7 1.6 1.6 0.00 0.00 0.00 46 1012.7
20260507121948 21 6 0.0 4.8 0.00 0.00 0.00 46 1012.6
20260507121449 21 16 0.0 6.4 0.00 0.00 0.00 49 1012.9
20260507120947 21 274 1.6 6.4 0.00 0.00 0.00 48 1012.9
20260507120448 21 315 3.2 6.4 0.00 0.00 0.00 46 1012.8
20260507115949 20 336 3.2 6.4 0.00 0.00 0.00 49 1012.9
20260507115449 21 328 1.6 6.4 0.00 0.00 0.00 46 1012.8
20260507114951 20 310 0.0 11.3 0.00 0.00 0.00 52 1012.8
20260507114450 20 308 6.4 11.3 0.00 0.00 0.00 48 1013.0
20260507113950 20 311 4.8 9.7 0.00 0.00 0.00 49 1012.9
20260507113448 21 316 4.8 9.7 0.00 0.00 0.00 48 1013.1
20260507112948 20 117 0.0 4.8 0.00 0.00 0.00 55 1013.1
20260507112448 20 118 1.6 4.8 0.00 0.00 0.00 50 1013.1
20260507111949 20 21 0.0 11.3 0.00 0.00 0.00 53 1012.9
20260507111447 20 322 6.4 14.5 0.00 0.00 0.00 50 1013.1
20260507110952 20 314 3.2 14.5 0.00 0.00 0.00 50 1013.4
20260507110450 20 101 1.6 12.9 0.00 0.00 0.00 54 1013.2
20260507105950 20 312 3.2 11.3 0.00 0.00 0.00 53 1013.4
20260507105447 20 316 4.8 11.3 0.00 0.00 0.00 51 1013.3
20260507104447 20 313 3.2 12.9 0.00 0.00 0.00 50 1013.5
20260507103949 20 313 3.2 14.5 0.00 0.00 0.00 53 1013.3
20260507103449 19 322 1.6 16.1 0.00 0.00 0.00 55 1013.5
20260507102949 18 318 6.4 16.1 0.00 0.00 0.00 54 1013.7
20260507102449 19 312 4.8 11.3 0.00 0.00 0.00 55 1013.6
20260507101937 20 339 0.0 12.9 0.00 0.00 0.00 54 1013.7
20260507101436 20 325 4.8 12.9 0.00 0.00 0.00 52 1013.6
20260507100936 19 353 1.6 14.5 0.00 0.00 0.00 59 1013.7
20260507100424 18 320 6.4 16.1 0.00 0.00 0.00 55 1013.8
20260507095924 19 316 11.3 16.1 0.00 0.00 0.00 53 1013.9
20260507095423 19 313 1.6 12.9 0.00 0.00 0.00 51 1013.5
20260507094913 19 334 6.4 12.9 0.00 0.00 0.00 53 1013.5
20260507094413 19 310 4.8 12.9 0.00 0.00 0.00 53 1013.6
20260507093914 20 313 6.4 12.9 0.00 0.00 0.00 52 1013.6
20260507093413 20 319 4.8 6.4 0.00 0.00 0.00 52 1013.7
20260507092912 20 331 0.0 6.4 0.00 0.00 0.00 53 1013.6
20260507092413 19 255 0.0 9.7 0.00 0.00 0.00 53 1013.6
20260507091912 19 310 0.0 11.3 0.00 0.00 0.00 55 1013.6
20260507090400 20 312 0.0 9.7 0.00 0.00 0.00 53 1013.5
20260507085901 21 322 3.2 9.7 0.00 0.00 0.00 48 1013.7
20260507084900 20 306 0.0 4.8 0.00 0.00 0.00 50 1013.5
20260507084401 20 357 0.0 3.2 0.00 0.00 0.00 52 1013.3
20260507083901 20 335 3.2 6.4 0.00 0.00 0.00 48 1013.3
20260507082850 20 327 3.2 6.4 0.00 0.00 0.00 48 1013.3
20260507082348 20 130 0.0 1.6 0.00 0.00 0.00 48 1013.3
20260507081847 19 279 0.0 3.2 0.00 0.00 0.00 49 1013.5
20260507081348 18 308 1.6 3.2 0.00 0.00 0.00 52 1013.4
20260507080848 19 146 0.0 1.6 0.00 0.00 0.00 51 1013.3
20260507080347 18 132 0.0 1.6 0.00 0.00 0.00 62 1013.4
20260507075847 19 130 0.0 3.2 0.00 0.00 0.00 57 1013.3
20260507075349 18 130 0.0 3.2 0.00 0.00 0.00 61 1013.2
20260507074849 17 359 0.0 1.6 0.00 0.00 0.00 69 1013.2
20260507074351 17 359 0.0 3.2 0.00 0.00 0.00 69 1013.3
20260507073849 17 357 0.0 3.2 0.00 0.00 0.00 70 1013.5
20260507073349 17 17 0.0 1.6 0.00 0.00 0.00 69 1013.5
20260507072847 16 18 0.0 0.0 0.00 0.00 0.00 73 1013.5
20260507071836 16 18 0.0 0.0 0.00 0.00 0.00 72 1013.3
20260507071335 15 18 0.0 0.0 0.00 0.00 0.00 77 1013.4
20260507065825 14 17 0.0 1.6 0.00 0.00 0.00 78 1013.3
20260507065323 14 19 0.0 0.0 0.00 0.00 0.00 80 1013.5
20260507064815 14 19 0.0 0.0 0.00 0.00 0.00 79 1013.3
20260507064314 13 19 0.0 0.0 0.00 0.00 0.00 83 1013.2
20260507063813 13 18 0.0 0.0 0.00 0.00 0.00 83 1013.4
20260507063302 13 19 0.0 0.0 0.00 0.00 0.00 82 1013.3
20260507062800 13 19 0.0 0.0 0.00 0.00 0.00 82 1013.3
20260507062301 12 19 0.0 0.0 0.00 0.00 0.00 86 1013.3
20260507061301 13 19 0.0 0.0 0.00 0.00 0.00 85 1013.5
20260507055802 11 16 0.0 0.0 0.00 0.03 0.00 95 1013.3
20260507055305 11 16 0.0 0.0 0.00 0.05 0.00 94 1013.3
20260507054758 10 16 0.0 0.0 0.00 0.08 0.00 95 1013.2
20260507054259 10 16 0.0 0.0 0.00 0.08 0.00 95 1013.2
20260507053801 10 16 0.0 1.6 0.00 0.08 0.00 95 1013.2
20260507053302 10 15 0.0 1.6 0.00 0.08 0.00 95 1013.4
20260507052800 9 317 0.0 0.0 0.00 0.08 0.00 95 1013.1
20260507052305 9 316 0.0 0.0 0.00 0.08 0.00 94 1013.1
20260507051301 8 316 0.0 0.0 0.00 0.08 0.00 94 1013.2
20260507050300 8 316 0.0 1.6 0.00 0.08 0.00 94 1013.0
20260507045735 9 316 0.0 1.6 0.00 0.08 0.00 94 1013.0
20260507045236 8 316 0.0 0.0 0.00 0.08 0.00 94 1013.0
20260507044720 8 317 0.0 0.0 0.00 0.08 0.00 94 1012.8
20260507044214 8 317 0.0 0.0 0.00 0.08 0.00 94 1012.7
20260507043700 8 317 0.0 0.0 0.00 0.08 0.00 93 1012.7
20260507043201 8 317 0.0 0.0 0.00 0.08 0.00 93 1012.8
20260507042700 9 317 0.0 0.0 0.00 0.08 0.00 93 1012.8
20260507042203 9 317 0.0 0.0 0.00 0.08 0.00 93 1012.4
20260507041647 9 317 0.0 0.0 0.00 0.08 0.00 93 1012.3
20260507041150 9 317 0.0 0.0 0.00 0.08 0.00 93 1012.5
20260507040651 9 317 0.0 0.0 0.00 0.08 0.00 93 1012.4
20260507040149 9 317 0.0 0.0 0.00 0.08 0.00 93 1012.5
20260507035648 9 317 0.0 0.0 0.00 0.08 0.00 93 1012.3
20260507035151 9 316 0.0 0.0 0.00 0.08 0.00 93 1012.4
20260507034650 9 317 0.0 0.0 0.00 0.08 0.00 93 1012.3
20260507034149 10 317 0.0 1.6 0.00 0.08 0.00 93 1012.3
20260507033651 10 317 0.0 1.6 0.00 0.08 0.00 92 1012.4
20260507033150 10 316 0.0 0.0 0.00 0.08 0.00 92 1012.1
20260507032628 10 316 0.0 0.0 0.00 0.08 0.00 92 1012.2
20260507032123 10 316 0.0 0.0 0.00 0.08 0.00 92 1012.4
20260507031607 10 316 0.0 0.0 0.00 0.08 0.00 91 1012.3
20260507030600 10 316 0.0 0.0 0.00 0.08 0.00 91 1012.3
20260507030053 10 315 0.0 0.0 0.00 0.08 0.00 91 1012.3
20260507025550 10 314 0.0 0.0 0.00 0.08 0.00 91 1012.3
20260507025046 11 314 0.0 0.0 0.00 0.08 0.00 90 1012.3
20260507024541 11 314 0.0 0.0 0.00 0.08 0.00 90 1012.2
20260507024038 11 314 0.0 0.0 0.00 0.08 0.00 90 1012.3
20260507023519 11 314 0.0 0.0 0.00 0.08 0.00 89 1012.4
20260507023013 11 314 0.0 0.0 0.00 0.08 0.00 88 1012.2
20260507022455 12 314 0.0 0.0 0.00 0.08 0.00 88 1012.1
20260507021950 12 314 0.0 0.0 0.00 0.08 0.00 88 1012.1
20260507021447 12 314 0.0 0.0 0.00 0.08 0.00 88 1012.3
20260507015949 12 314 0.0 0.0 0.00 0.08 0.00 88 1012.2
20260507014950 12 314 0.0 0.0 0.00 0.10 0.00 89 1012.1
20260507014449 11 314 0.0 0.0 0.00 0.10 0.00 88 1011.7
20260507013951 12 314 0.0 0.0 0.00 0.10 0.00 87 1012.1
20260507013449 12 314 0.0 0.0 0.00 0.10 0.00 87 1011.9
20260507012949 12 314 0.0 0.0 0.00 0.10 0.00 88 1012.1
20260507012452 12 314 0.0 1.6 0.00 0.10 0.00 87 1012.0
20260507011947 12 311 0.0 1.6 0.00 0.10 0.00 87 1012.2
20260507011448 12 311 0.0 1.6 0.00 0.10 0.00 87 1012.2
20260507010446 12 311 0.0 0.0 0.00 0.10 0.00 85 1012.3
20260507005951 12 311 0.0 0.0 0.00 0.10 0.00 85 1012.3
20260507004947 12 311 0.0 0.0 0.00 0.10 0.00 83 1012.4
20260507004448 13 311 0.0 0.0 0.00 0.10 0.00 82 1012.3
20260507003950 13 311 0.0 1.6 0.00 0.10 0.00 80 1012.3
20260507002948 13 311 0.0 0.0 0.00 0.10 0.00 76 1012.2
20260507002449 13 311 0.0 0.0 0.00 0.10 0.00 76 1012.4
20260507001951 13 311 0.0 0.0 0.00 0.10 0.00 74 1012.3
20260507001448 13 311 0.0 3.2 0.00 0.10 0.00 74 1012.3
20260507000936 13 311 0.0 4.8 0.00 0.10 0.00 75 1012.3
20260507000435 13 311 0.0 4.8 0.00 0.10 0.00 74 1012.2
20260506235926 13 312 1.6 3.2 0.00 0.10 0.00 74 1012.4
20260506234926 13 308 3.2 9.7 0.00 0.10 0.00 74 1012.4
20260506234414 13 310 1.6 9.7 0.00 0.10 0.00 74 1012.5
20260506233913 13 326 3.2 6.4 0.00 0.10 0.00 74 1012.4
20260506233411 14 312 1.6 4.8 0.00 0.10 0.00 73 1012.4
20260506232903 14 312 1.6 4.8 0.00 0.10 0.00 72 1012.5
20260506231903 14 318 3.2 4.8 0.00 0.10 0.00 71 1012.5
20260506231402 14 316 3.2 4.8 0.00 0.10 0.00 72 1012.3
20260506230400 14 314 0.0 3.2 0.00 0.10 0.00 73 1012.6
20260506225359 14 313 3.2 6.4 0.00 0.10 0.00 70 1012.5
20260506224902 14 308 3.2 6.4 0.00 0.10 0.00 71 1012.2
20260506224401 14 314 3.2 6.4 0.00 0.10 0.00 73 1012.3
20260506223903 14 320 3.2 9.7 0.00 0.10 0.00 73 1012.3
20260506223349 14 313 1.6 9.7 0.00 0.10 0.00 73 1012.4
20260506222846 14 326 4.8 9.7 0.00 0.13 0.00 73 1012.5
20260506222348 14 322 1.6 9.7 0.00 0.13 0.00 74 1012.6
20260506221849 14 313 3.2 12.9 0.00 0.13 0.00 75 1012.6
20260506221348 14 315 3.2 12.9 0.00 0.15 0.00 75 1012.4
20260506220849 15 308 6.4 11.3 0.00 0.15 0.00 75 1012.2
20260506220350 15 317 8.0 11.3 0.00 0.15 0.00 76 1012.4
20260506215848 15 315 3.2 11.3 0.00 0.18 0.15 75 1012.2
20260506215350 15 317 1.6 9.7 0.00 0.18 0.15 76 1012.4
20260506214851 15 310 4.8 9.7 0.00 0.18 0.15 75 1012.3
20260506214349 15 329 4.8 6.4 0.00 0.18 0.15 76 1012.3
20260506213849 15 318 3.2 11.3 0.00 0.18 0.15 76 1012.2
20260506211851 15 311 0.0 9.7 0.00 0.18 0.15 79 1012.0
20260506211347 15 313 1.6 9.7 0.00 0.18 0.15 78 1012.1
20260506210849 15 330 6.4 9.7 0.00 0.18 0.15 78 1012.1
20260506210349 15 314 1.6 6.4 0.00 0.18 0.15 79 1012.0
20260506205835 15 319 0.0 4.8 0.00 0.18 0.15 80 1012.1
20260506205336 15 313 0.0 4.8 0.00 0.18 0.15 79 1011.9
20260506204834 15 326 0.0 4.8 0.00 0.18 0.15 79 1011.9
20260506204311 15 323 0.0 6.4 0.00 0.18 0.15 79 1012.0
20260506203300 15 313 1.6 4.8 0.00 0.18 0.15 79 1011.8
20260506202801 15 306 0.0 4.8 0.00 0.18 0.15 79 1011.6
20260506202306 15 296 1.6 12.9 0.00 0.18 0.15 79 1011.6
20260506201300 15 310 1.6 14.5 0.00 0.18 0.15 79 1011.5